Temperature
18 18 18 18 18 18 17 17 16 16 15 14 14 13 13 13 12 12 12 11 11 11 10 10 10 10 10 9 9 9 9 9 9 9 9 9 9 9 9 9 8 8 8
18 18 19 18 18 18 18 17 17 16 16 15 15 14 13 13 13 12 12 11 11 11 10 10 10 10 10 9 9 9 9 9 9 8 8 8 8 9 9 9 9 8 8
18 18 18 18 19 18 18 18 17 17 16 16 15 14 13 13 12 12 12 12 11 11 11 10 10 10 10 9 9 9 9 9 9 8 8 8 9 8 8 8 8 8 8
18 18 18 18 18 18 18 18 17 17 17 16 15 14 14 13 13 13 12 12 12 11 11 11 10 10 10 9 9 9 9 9 8 8 8 8 8 7 7 7 8 8 7
18 18 18 18 19 18 18 18 17 17 16 16 15 15 14 14 13 12 12 12 12 11 11 11 10 10 10 10 9 9 9 9 8 8 8 8 7 7 6 6 7 7 7
18 18 18 18 18 18 18 18 17 17 16 16 15 15 14 14 13 13 12 12 12 11 11 11 10 10 10 10 9 9 9 9 8 8 8 8 7 7 6 6 6 6 6
18 18 18 18 18 18 18 18 17 17 16 16 15 15 15 14 13 13 12 12 12 11 11 11 10 10 10 10 9 9 9 8 8 8 8 7 7 7 6 6 5 5 5
18 18 18 18 18 18 18 18 18 17 17 16 16 15 14 14 13 13 12 12 12 12 11 11 10 10 10 9 9 9 8 8 8 8 8 7 7 6 6 5 5 4 4
18 18 18 18 18 18 18 18 18 17 17 16 15 15 14 14 13 13 12 12 12 12 11 11 10 10 10 9 9 9 8 8 8 8 7 7 7 6 6 5 4 3 3
17 18 18 18 18 18 18 18 18 17 17 16 16 15 14 14 14 13 13 12 12 11 11 11 10 10 9 9 9 8 8 8 7 7 7 6 6 6 5 5 4 3 2
17 17 18 18 18 18 18 17 17 17 16 16 15 15 14 14 13 13 13 12 12 11 11 10 10 10 9 9 9 8 8 7 7 7 6 6 6 5 5 4 4 3 2
17 17 17 18 17 17 17 17 17 17 16 16 15 15 14 14 13 13 12 12 12 11 11 10 10 9 9 9 8 8 8 7 7 6 6 6 5 5 4 4 3 3 2
17 17 17 17 17 17 17 17 17 17 16 16 15 14 14 14 13 13 12 12 11 11 10 10 9 9 9 8 8 8 7 7 7 6 6 5 5 4 4 3 3 2 2
16 17 17 17 17 17 17 17 17 16 16 15 15 14 14 13 13 12 12 11 11 10 10 10 9 9 8 8 8 7 7 7 6 6 5 5 4 4 3 2 2 1 1
16 16 16 17 17 17 17 17 16 16 16 15 15 14 14 13 12 12 11 11 10 10 10 9 9 8 8 8 7 7 6 6 6 5 4 4 3 3 2 2 1 1 0
16 16 16 16 17 17 17 16 16 16 15 15 14 14 13 12 12 11 11 10 10 9 9 9 8 8 7 7 7 6 6 5 5 4 4 3 3 2 2 1 1 0 -1
16 16 16 16 17 17 16 16 16 15 15 14 14 13 13 12 11 11 10 10 9 9 8 8 7 7 7 7 6 6 5 5 4 3 3 2 2 1 1 0 -0 -1 -1
16 16 16 16 16 16 16 16 15 15 14 14 13 13 12 11 11 10 10 9 9 8 8 7 7 7 7 6 6 5 4 4 3 3 2 2 1 1 0 -0 -1 -1 -2
15 15 16 16 16 16 15 15 15 14 14 13 13 12 11 11 10 9 9 8 8 8 7 7 7 6 6 5 5 4 3 3 2 2 1 1 0 -0 -1 -1 -2 -2 -3
15 15 15 15 15 15 15 15 14 14 14 13 12 12 11 10 9 9 8 8 7 7 6 6 6 5 5 5 4 3 2 2 1 1 1 0 -0 -1 -2 -2 -3 -3 -3
14 15 14 14 14 14 14 14 14 13 13 12 12 11 10 9 9 8 8 7 7 6 6 5 5 4 4 3 3 2 2 1 0 -0 -0 -1 -1 -2 -2 -3 -3 -4 -4
14 14 14 14 13 13 13 13 13 13 12 12 11 10 9 9 8 7 7 6 6 5 5 4 4 3 3 2 2 1 1 0 -0 -1 -1 -2 -2 -2 -3 -3 -4 -5 -5
13 13 13 13 13 13 12 12 12 12 12 11 10 9 9 8 7 7 6 6 5 4 4 3 3 2 2 2 1 1 0 -0 -1 -2 -2 -2 -3 -3 -4 -4 -5 -5 -6
12 12 12 12 12 12 12 11 12 11 11 10 9 8 8 7 6 6 5 5 4 4 3 2 2 1 1 0 0 -0 -1 -1 -2 -2 -3 -3 -4 -4 -5 -5 -6 -6 -6
11 11 11 11 11 11 11 11 11 10 10 9 8 7 7 6 6 5 4 4 3 3 2 2 1 0 0 -0 -1 -1 -2 -2 -3 -3 -4 -4 -5 -5 -6 -6 -6 -7 -7
11 11 11 10 10 10 10 10 9 9 9 8 7 7 6 5 5 4 3 3 2 2 1 1 0 -0 -1 -1 -2 -2 -3 -3 -4 -4 -5 -5 -6 -6 -6 -7 -7 -8 -8
Wind_Speed
10 9 10 12 13 14 16 17 17 17 15 13 13 12 12 11 11 12 15 16 15 15 14 10 10 10 9 9 9 7 7 6 4 4 5 6 6 7 6 6 6 7 7
9 8 9 11 13 15 16 16 17 17 17 15 14 12 11 10 11 10 13 16 16 16 14 13 10 10 9 10 9 8 6 5 5 4 4 5 5 6 7 7 7 7 7
9 8 9 11 12 14 15 14 17 17 18 16 12 10 9 7 9 11 11 14 17 16 16 15 13 11 11 10 10 10 10 7 6 6 5 5 5 3 4 7 7 8 7
9 8 9 11 12 13 13 14 15 16 17 16 15 16 13 12 13 11 11 13 16 16 16 15 14 12 11 11 11 10 9 9 7 6 6 7 6 5 5 5 7 8 9
8 8 8 9 10 11 11 12 14 15 16 17 17 17 15 13 11 11 12 12 12 15 15 15 13 12 11 12 11 11 11 9 9 7 5 7 6 8 7 8 6 6 7
8 7 7 7 8 9 10 11 13 14 15 17 17 18 17 15 13 13 12 11 10 11 14 14 13 13 11 12 12 11 12 11 11 9 7 6 5 6 8 9 9 9 7
8 8 8 8 8 9 10 11 13 14 15 16 17 17 17 16 16 14 13 12 10 10 13 13 13 12 12 12 11 11 11 12 11 10 9 8 9 7 7 8 9 10 8
9 9 8 8 8 9 10 12 13 14 14 15 16 15 15 13 12 14 12 12 10 10 11 13 13 13 12 11 11 10 11 10 11 11 10 8 8 8 7 7 7 9 9
10 9 8 8 8 9 10 12 13 13 14 14 14 14 15 14 13 12 12 10 10 9 11 12 12 12 12 11 11 10 11 10 10 10 11 9 8 8 8 8 8 8 9
11 10 9 8 8 8 9 10 11 12 12 13 13 11 13 13 12 11 12 11 11 10 10 11 11 11 11 11 11 10 10 11 10 9 10 10 8 7 7 8 8 9 10
11 9 8 7 7 7 8 10 10 11 11 12 12 12 12 12 11 11 11 11 10 10 11 11 11 11 11 11 11 11 11 11 11 10 10 11 10 8 8 8 8 9 9
9 9 8 7 7 8 9 9 10 10 10 10 11 11 11 11 11 11 11 10 10 9 9 9 10 10 10 10 11 11 11 11 11 11 11 11 8 10 9 8 9 9 10
9 9 8 8 8 8 8 9 9 10 10 10 10 10 11 11 11 10 10 9 9 9 9 9 9 9 9 9 10 10 10 11 11 11 11 10 10 11 9 9 9 8 8
9 9 9 9 9 8 9 9 9 9 9 10 10 10 11 10 10 9 9 9 9 8 8 8 8 8 8 8 9 9 9 10 10 10 10 10 10 11 10 9 10 9 9
9 10 10 9 9 9 9 9 9 9 9 10 10 10 9 9 9 9 8 8 8 8 7 7 7 7 7 7 8 8 9 9 9 9 10 9 10 10 10 8 8 8 8
11 11 11 10 10 10 10 9 9 9 10 10 10 9 8 9 9 8 8 8 7 7 7 7 7 7 6 6 8 8 8 8 9 9 8 8 9 10 13 14 13 12 10
12 12 12 11 10 10 10 10 10 9 10 10 9 9 9 9 9 8 8 8 7 7 7 7 7 7 6 7 8 9 7 8 8 8 7 6 6 8 8 11 13 13 15
13 12 11 10 9 9 9 9 9 10 10 9 9 9 9 9 8 8 8 7 6 6 6 6 6 6 5 6 7 7 8 7 7 7 7 7 7 7 8 8 9 10 11
13 11 9 9 8 9 9 10 10 10 10 10 10 9 9 9 9 8 8 6 6 6 5 5 6 6 5 6 6 6 5 5 6 6 6 7 7 8 9 9 9 10 9
10 8 7 7 8 9 10 10 10 10 11 10 9 9 9 9 9 8 7 5 5 5 4 4 5 5 5 4 5 6 4 5 5 5 5 7 9 9 10 9 8 9 9
8 7 7 7 7 9 10 11 10 10 9 8 8 8 8 8 8 7 6 5 5 4 4 4 4 4 4 4 6 6 4 5 5 5 5 5 8 10 10 9 8 9 9
6 6 6 6 6 8 10 10 10 8 8 8 8 8 8 7 6 6 6 5 5 5 4 4 3 3 3 4 5 6 6 6 5 5 5 5 8 9 9 8 9 10 9
6 6 6 6 6 8 9 10 8 9 9 9 9 8 7 6 6 7 6 5 5 4 4 3 3 3 2 3 5 5 6 6 5 5 6 7 8 8 7 8 9 9 6
6 5 6 7 6 7 8 8 8 9 10 9 8 8 7 6 6 5 5 5 5 4 4 4 3 3 3 3 3 3 3 4 4 4 5 6 6 6 6 7 6 5 6
5 6 7 7 7 7 7 7 9 10 10 9 8 7 6 6 5 4 3 4 4 4 4 4 4 4 4 4 5 4 4 4 4 4 4 4 4 4 4 4 5 5 5
5 6 7 6 6 7 7 8 9 10 10 9 8 6 6 5 5 4 2 1 2 2 3 4 4 4 5 5 6 6 6 6 5 5 4 5 5 5 5 5 5 5 6
Wind_Direction
236 225 218 211 206 203 203 202 200 200 197 197 200 202 207 209 211 213 214 211 210 210 211 213 214 212 217 220 223 226 232 237 242 256 264 254 242 240 233 232 232 229 233
227 220 212 204 202 201 201 201 201 199 198 199 199 203 205 210 212 211 214 214 213 211 211 214 214 212 218 221 221 219 230 231 220 241 267 269 247 230 229 231 235 240 237
232 223 210 204 201 201 201 200 200 199 199 198 197 194 196 203 207 211 213 214 214 213 212 214 216 215 215 220 220 216 221 230 224 228 243 262 271 278 226 232 235 239 241
229 224 212 205 203 203 200 201 199 199 198 196 197 197 201 208 212 211 212 212 213 215 215 215 217 218 219 222 221 219 221 229 232 222 232 248 268 268 273 235 235 240 246
224 222 215 209 204 199 195 198 197 198 197 198 200 204 211 216 216 212 213 213 212 214 214 215 216 219 220 223 221 218 219 222 230 226 220 230 242 247 257 270 263 250 245
222 221 215 207 202 195 193 194 196 198 198 199 203 207 212 214 213 211 212 213 213 212 214 214 216 219 220 222 222 220 219 221 228 228 224 222 225 229 236 255 267 269 262
220 215 210 204 199 194 193 194 196 198 198 200 205 209 213 215 216 215 216 214 214 213 213 211 215 218 220 221 221 221 222 223 226 228 230 232 237 238 237 252 265 270 271
219 214 211 207 202 198 196 195 197 198 197 200 205 209 212 214 218 217 218 217 218 217 214 212 216 218 218 218 219 223 226 227 228 230 230 233 236 235 233 241 256 269 268
214 213 209 207 204 201 200 197 196 197 198 201 204 208 210 212 216 217 219 220 221 218 215 213 215 217 218 218 219 223 225 225 228 232 233 236 237 234 237 239 240 252 271
214 214 213 211 211 208 201 199 199 199 199 200 202 206 209 211 214 215 217 218 219 216 215 214 215 217 218 218 220 225 227 226 228 230 233 236 239 236 235 236 239 242 253
215 215 215 213 211 206 199 197 198 199 198 200 201 203 206 207 209 213 215 216 217 215 217 216 216 218 220 220 221 225 226 228 232 230 232 236 236 237 237 236 237 240 245
221 218 217 214 209 204 200 197 196 198 198 196 198 201 202 202 206 211 213 213 215 215 216 217 220 221 222 221 223 227 226 229 232 233 233 238 236 237 238 235 239 243 245
226 225 223 218 212 206 201 198 197 197 194 192 194 196 198 200 204 207 208 209 211 212 213 215 219 221 222 223 226 228 230 232 235 236 236 238 236 239 239 238 243 247 250
230 224 222 221 215 208 202 198 196 192 188 187 191 196 197 198 200 202 203 204 205 208 210 214 218 220 222 225 227 229 233 236 238 238 238 238 236 240 242 243 246 250 252
237 229 226 224 216 207 201 196 193 188 184 186 191 196 194 193 194 196 198 199 202 205 207 211 216 218 221 224 225 228 233 237 240 241 240 240 241 245 246 247 249 249 252
245 237 231 224 216 209 201 193 191 186 183 187 191 188 186 187 190 193 194 196 199 201 203 208 213 217 221 215 219 229 235 239 241 244 246 246 242 243 246 250 252 251 253
251 243 234 224 217 208 199 194 188 180 182 186 186 184 184 185 188 187 190 194 197 199 204 208 212 221 222 209 220 226 238 243 245 247 249 250 249 249 254 256 257 255 255
252 246 236 225 216 204 194 186 177 178 181 184 184 183 183 183 182 185 190 193 195 199 206 211 215 222 222 211 223 228 238 244 245 246 249 253 256 253 259 264 263 262 261
249 246 235 221 206 194 184 174 176 178 181 186 185 183 181 180 181 186 190 190 191 198 205 211 215 222 223 209 218 227 235 240 244 247 247 249 256 257 260 264 264 267 268
246 236 220 205 197 190 178 176 180 182 188 188 183 179 180 180 183 185 184 184 187 192 195 209 217 223 228 210 210 222 231 240 246 250 249 249 258 264 264 265 265 267 273
240 225 207 201 196 181 175 182 184 192 188 176 171 172 176 178 178 175 176 175 176 182 194 205 218 225 227 211 211 224 234 241 250 254 257 258 261 266 268 270 270 274 283
235 217 206 204 192 180 180 185 191 185 168 163 165 168 169 165 167 168 170 174 176 183 194 202 216 227 224 223 222 233 246 255 257 259 263 265 268 269 270 274 277 282 284
236 219 207 200 192 187 188 190 184 166 161 161 164 164 162 164 168 171 172 176 182 190 199 206 217 228 232 226 229 242 255 260 266 267 272 275 275 275 273 277 283 285 280
233 216 203 200 199 194 194 189 170 164 161 163 163 162 164 165 168 171 176 182 190 196 202 212 220 228 237 236 231 244 255 258 264 269 271 272 274 276 278 281 282 280 279
226 212 207 205 199 190 189 177 169 165 162 161 161 163 166 166 168 171 182 195 204 206 206 216 219 225 238 242 250 260 260 260 260 270 268 265 268 272 273 276 278 278 277
219 210 208 202 195 185 181 175 172 168 161 160 162 165 168 167 167 163 151 123 205 207 228 232 235 243 248 251 261 269 272 276 269 274 263 265 267 270 274 277 278 278 279
Height
1482 1484 1485 1488 1490 1493 1496 1498 1501 1505 1508 1510 1512 1515 1517 1520 1522 1524 1525 1527 1529 1530 1531 1532 1533 1534 1534 1534 1535 1535 1534 1534 1533 1532 1530 1529 1527 1526 1525 1524 1523 1521 1520
1478 1479 1480 1482 1484 1487 1490 1493 1496 1499 1502 1504 1507 1510 1513 1515 1517 1519 1521 1522 1524 1526 1527 1528 1529 1530 1530 1531 1531 1531 1531 1530 1530 1529 1528 1527 1526 1522 1521 1520 1519 1518 1516
1473 1474 1475 1477 1479 1482 1485 1488 1491 1494 1497 1500 1503 1505 1508 1510 1512 1513 1515 1517 1519 1521 1522 1523 1524 1525 1526 1526 1526 1527 1527 1526 1526 1525 1526 1525 1522 1520 1517 1515 1514 1513 1512
1468 1469 1471 1472 1474 1477 1480 1483 1486 1488 1491 1494 1497 1499 1501 1503 1505 1508 1510 1512 1514 1515 1517 1518 1519 1520 1520 1521 1521 1522 1522 1522 1521 1521 1520 1520 1518 1517 1514 1512 1510 1509 1507
1464 1465 1466 1468 1470 1473 1475 1478 1481 1483 1486 1489 1491 1494 1496 1498 1501 1503 1505 1506 1508 1509 1511 1512 1513 1514 1515 1515 1516 1516 1516 1516 1516 1515 1515 1514 1513 1512 1511 1508 1506 1504 1502
1460 1461 1462 1464 1466 1468 1471 1473 1476 1478 1481 1483 1486 1488 1490 1493 1495 1497 1499 1501 1502 1503 1505 1506 1507 1508 1509 1510 1510 1510 1510 1510 1510 1510 1509 1508 1507 1506 1505 1503 1501 1499 1497
1456 1457 1459 1460 1462 1464 1466 1468 1471 1473 1475 1478 1480 1483 1485 1488 1489 1491 1493 1495 1496 1497 1498 1500 1501 1502 1503 1504 1504 1504 1504 1504 1504 1503 1503 1502 1501 1500 1499 1497 1495 1492 1490
1452 1454 1455 1456 1458 1460 1462 1464 1466 1468 1470 1473 1475 1478 1480 1482 1484 1486 1487 1489 1490 1491 1492 1494 1495 1496 1497 1497 1498 1498 1498 1498 1497 1497 1496 1495 1494 1494 1492 1491 1490 1486 1484
1448 1449 1451 1452 1454 1455 1457 1459 1461 1464 1466 1468 1470 1472 1474 1476 1478 1480 1482 1483 1484 1485 1486 1487 1488 1489 1490 1491 1491 1491 1491 1491 1490 1490 1489 1488 1487 1486 1485 1484 1483 1482 1478
1444 1445 1447 1448 1450 1451 1453 1455 1457 1459 1461 1463 1465 1467 1469 1471 1472 1474 1475 1477 1478 1479 1480 1481 1482 1483 1484 1484 1484 1484 1484 1484 1483 1483 1482 1481 1481 1479 1478 1477 1476 1474 1472
1440 1441 1442 1444 1445 1447 1449 1450 1452 1455 1457 1459 1460 1462 1464 1465 1467 1468 1470 1471 1472 1473 1474 1475 1476 1476 1477 1478 1478 1478 1478 1477 1477 1476 1475 1474 1474 1472 1471 1470 1468 1467 1465
1435 1437 1438 1440 1441 1442 1444 1446 1448 1450 1452 1454 1455 1457 1458 1460 1461 1463 1464 1465 1466 1467 1468 1469 1470 1470 1471 1471 1471 1471 1471 1470 1470 1469 1468 1467 1466 1465 1464 1463 1461 1460 1458
1431 1432 1434 1435 1436 1438 1439 1441 1443 1445 1447 1449 1450 1452 1453 1454 1456 1457 1459 1460 1461 1461 1462 1463 1464 1464 1465 1465 1465 1465 1465 1464 1463 1462 1461 1460 1460 1458 1457 1456 1454 1453 1451
1426 1427 1428 1430 1431 1433 1434 1436 1438 1440 1442 1443 1445 1447 1448 1449 1451 1452 1453 1454 1455 1456 1457 1457 1458 1458 1458 1459 1459 1458 1458 1457 1456 1455 1454 1454 1453 1452 1450 1449 1447 1446 1444
1422 1422 1423 1425 1426 1428 1429 1431 1433 1435 1436 1438 1440 1441 1443 1444 1446 1447 1448 1449 1450 1450 1451 1452 1452 1452 1452 1452 1452 1452 1451 1450 1449 1448 1448 1447 1446 1444 1443 1442 1441 1439 1437
1416 1417 1418 1419 1420 1422 1424 1425 1427 1429 1431 1433 1435 1436 1438 1439 1440 1442 1443 1444 1445 1445 1446 1446 1446 1446 1446 1446 1446 1446 1445 1444 1443 1442 1441 1440 1439 1438 1436 1435 1434 1432 1431
1411 1411 1412 1413 1414 1416 1418 1420 1422 1424 1426 1427 1429 1431 1432 1433 1435 1436 1437 1438 1439 1440 1440 1440 1441 1441 1441 1441 1440 1440 1439 1437 1436 1435 1434 1433 1432 1431 1429 1428 1426 1425 1423
1405 1405 1406 1407 1409 1411 1413 1415 1417 1418 1420 1422 1424 1425 1427 1428 1429 1431 1432 1433 1433 1434 1435 1435 1435 1435 1434 1434 1434 1433 1432 1431 1430 1429 1428 1427 1425 1424 1423 1421 1419 1418 1417
1399 1399 1400 1401 1403 1405 1407 1409 1411 1413 1415 1416 1418 1419 1421 1423 1424 1425 1426 1427 1428 1429 1429 1429 1429 1429 1428 1428 1428 1427 1425 1424 1424 1423 1422 1421 1419 1418 1417 1415 1413 1411 1410
1392 1393 1394 1395 1397 1399 1401 1403 1405 1407 1409 1411 1413 1414 1416 1417 1419 1420 1421 1422 1423 1423 1423 1423 1423 1423 1422 1422 1422 1421 1420 1419 1418 1417 1416 1415 1413 1412 1411 1409 1407 1405 1403
1386 1387 1388 1389 1391 1393 1395 1397 1399 1402 1404 1406 1408 1409 1411 1413 1414 1415 1416 1417 1417 1418 1418 1418 1418 1417 1417 1416 1416 1415 1414 1413 1412 1411 1410 1409 1407 1406 1405 1403 1401 1399 1398
1380 1381 1382 1384 1385 1387 1389 1391 1394 1396 1399 1401 1403 1404 1406 1407 1409 1410 1411 1411 1412 1412 1412 1412 1412 1412 1411 1411 1410 1410 1409 1408 1407 1405 1404 1403 1401 1400 1399 1397 1395 1394 1392
1375 1376 1377 1378 1380 1382 1384 1386 1389 1391 1393 1395 1397 1399 1401 1402 1404 1405 1405 1406 1406 1407 1406 1406 1406 1406 1406 1405 1405 1404 1404 1402 1401 1400 1398 1397 1396 1394 1393 1391 1389 1388 1386
1370 1370 1372 1373 1374 1377 1379 1381 1383 1386 1388 1390 1392 1394 1395 1397 1398 1399 1400 1401 1401 1401 1401 1401 1401 1400 1400 1400 1399 1398 1398 1397 1396 1394 1393 1391 1390 1388 1387 1385 1383 1382 1380
1364 1365 1366 1368 1369 1371 1373 1375 1378 1380 1382 1384 1386 1388 1390 1392 1393 1394 1395 1396 1396 1397 1397 1396 1396 1395 1395 1395 1395 1394 1392 1391 1390 1389 1387 1386 1384 1383 1381 1380 1378 1376 1375
1359 1360 1361 1363 1364 1365 1367 1370 1372 1374 1376 1378 1380 1382 1384 1386 1387 1388 1389 1390 1392 1392 1392 1391 1391 1390 1390 1390 1389 1388 1387 1386 1385 1384 1382 1381 1379 1378 1376 1375 1373 1371 1370